Change the Weather History Date:

Thursday, January 24, 2013

  Actual Average (KLEX) Record (KLEX)
Temperature  
Mean Temperature 26 °F 33 °F  
Max Temperature 32 °F 41 °F 80 °F (1943)
Min Temperature 19 °F 25 °F -21 °F (1963)
Degree Days  
Heating Degree Days 40 32  
Month to date heating degree days 768  
Since 1 July heating degree days 2556  
Cooling Degree Days 0 0  
Month to date cooling degree days 0  
Year to date cooling degree days 0  
Moisture  
Dew Point 6 °F    
Average Humidity 49    
Maximum Humidity 69    
Minimum Humidity 29    
Precipitation  
Precipitation 0.00 in 0.10 in 1.66 in (1997)
Month to date precipitation 2.46  
Year to date precipitation 2.46  
Snow  
Snow 0.00 in 0.20 in 4.40 in (1948)
Month to date snowfall 2.9  
Since 1 July snowfall 5.7  
Snow Depth -    
Sea Level Pressure  
Sea Level Pressure 30.40 in    
Wind  
Wind Speed 11 mph (NE)    
Max Wind Speed 20 mph    
Max Gust Speed 26 mph    
Visibility 10 miles    
Events      
T = Trace of Precipitation, MM = Missing Value Source: NWS Daily Summary

Daily Weather History Graph

Daily Weather History Graph

Search for Another Location

Airport or City:

Trip Planner

Search our weather history database for the weather conditions in past years. The results will help you decide how hot, cold, wet, or windy it might be!

Date:

Astronomy

Jan. 24, 2013 Rise Set
Actual Time 7:48 AM EST 5:54 PM EST
Civil Twilight 7:20 AM EST 6:22 PM EST
Nautical Twilight 6:48 AM EST 6:54 PM EST
Astronomical Twilight 6:17 AM EST 7:25 PM EST
Moon 3:56 PM EST (1/24) 5:44 AM EST (1/24)
Length of Visible Light 11h 02m
Length of Day
10h 06m
Waxing Gibbous, 94% of the Moon is Illuminated
Jan 24
Waxing Gibbous
Jan 26
Full
Feb 3
Last Quarter
Feb 10
New
Feb 17
First Quarter

Hourly Weather History & Observations

Time (EST) Temp. Windchill Dew Point Humidity Pressure Visibility Wind Dir Wind Speed Gust Speed Precip Events Conditions
12:15 AM 32.0 °F 21.6 °F 19.4 °F 60% 30.13 in 10.0 mi WNW 15.0 mph 24.2 mph N/A   Clear
12:35 AM 32.0 °F 22.5 °F 19.4 °F 60% 30.13 in 10.0 mi WNW 12.7 mph 20.7 mph N/A   Clear
12:55 AM 32.0 °F 22.1 °F 19.4 °F 60% 30.14 in 10.0 mi WNW 13.8 mph 19.6 mph N/A   Clear
1:15 AM 32.0 °F 23.6 °F 19.4 °F 60% 30.14 in 10.0 mi NW 10.4 mph 19.6 mph N/A   Clear
1:35 AM 30.2 °F 21.3 °F 19.4 °F 64% 30.15 in 10.0 mi NW 10.4 mph - N/A   Clear
1:55 AM 30.2 °F 21.9 °F 19.4 °F 64% 30.15 in 10.0 mi WNW 9.2 mph - N/A   Clear
2:15 AM 30.2 °F 21.9 °F 19.4 °F 64% 30.17 in 10.0 mi NW 9.2 mph - N/A   Clear
2:35 AM 30.2 °F 21.9 °F 19.4 °F 64% 30.18 in 10.0 mi NW 9.2 mph - N/A   Clear
2:55 AM 30.2 °F 21.9 °F 19.4 °F 64% 30.19 in 10.0 mi NW 9.2 mph - N/A   Clear
3:15 AM 30.2 °F 21.9 °F 19.4 °F 64% 30.20 in 10.0 mi NW 9.2 mph 19.6 mph N/A   Clear
3:35 AM 28.4 °F 17.0 °F 19.4 °F 69% 30.23 in 10.0 mi NNW 15.0 mph 19.6 mph N/A   Mostly Cloudy
3:55 AM 26.6 °F 14.7 °F 17.6 °F 69% 30.25 in 10.0 mi NNW 15.0 mph 18.4 mph N/A   Mostly Cloudy
4:15 AM 26.6 °F 13.1 °F 15.8 °F 64% 30.27 in 10.0 mi North 19.6 mph 24.2 mph N/A   Overcast
4:35 AM 24.8 °F 11.9 °F 14.0 °F 64% 30.28 in 10.0 mi North 16.1 mph 23.0 mph N/A   Overcast
4:55 AM 23.0 °F 9.6 °F 12.2 °F 63% 30.30 in 10.0 mi North 16.1 mph 24.2 mph N/A   Overcast
5:15 AM 23.0 °F 8.3 °F 12.2 °F 63% 30.32 in 10.0 mi North 19.6 mph 26.5 mph N/A   Overcast
5:35 AM 21.2 °F 7.8 °F 10.4 °F 63% 30.33 in 10.0 mi North 15.0 mph 19.6 mph N/A   Mostly Cloudy
5:55 AM 21.2 °F 10.1 °F 10.4 °F 63% 30.34 in 10.0 mi North 10.4 mph 18.4 mph N/A   Scattered Clouds
6:15 AM 21.2 °F 8.3 °F 10.4 °F 63% 30.35 in 10.0 mi North 13.8 mph 17.3 mph N/A   Clear
6:35 AM 21.2 °F 10.1 °F 8.6 °F 58% 30.37 in 10.0 mi North 10.4 mph - N/A   Clear
6:55 AM 19.4 °F 7.2 °F 6.8 °F 58% 30.38 in 10.0 mi North 11.5 mph 16.1 mph N/A   Clear
7:15 AM 19.4 °F 9.5 °F 6.8 °F 58% 30.40 in 10.0 mi North 8.1 mph - N/A   Clear
7:35 AM 19.4 °F 10.4 °F 8.6 °F 63% 30.41 in 10.0 mi NNE 6.9 mph - N/A   Clear
7:55 AM 19.4 °F 6.6 °F 8.6 °F 63% 30.43 in 10.0 mi NNE 12.7 mph 16.1 mph N/A   Clear
8:15 AM 19.4 °F 7.2 °F 8.6 °F 63% 30.44 in 10.0 mi NNE 11.5 mph - N/A   Clear
8:35 AM 19.4 °F 7.9 °F 8.6 °F 63% 30.46 in 10.0 mi NNE 10.4 mph - N/A   Clear
8:55 AM 19.4 °F 8.6 °F 8.6 °F 63% 30.46 in 10.0 mi North 9.2 mph - N/A   Clear
9:15 AM 21.2 °F 10.1 °F 8.6 °F 58% 30.46 in 10.0 mi NE 10.4 mph 16.1 mph N/A   Clear
9:35 AM 21.2 °F 9.5 °F 5.0 °F 50% 30.47 in 10.0 mi NNE 11.5 mph 16.1 mph N/A   Clear
9:55 AM 21.2 °F 10.1 °F 5.0 °F 50% 30.49 in 10.0 mi NNE 10.4 mph - N/A   Clear
10:15 AM 21.2 °F 8.3 °F 1.4 °F 42% 30.50 in 10.0 mi NNE 13.8 mph - N/A   Clear
10:35 AM 23.0 °F 11.1 °F 1.4 °F 39% 30.50 in 10.0 mi NNE 12.7 mph 16.1 mph N/A   Clear
10:55 AM 23.0 °F 11.1 °F -0.4 °F 36% 30.52 in 10.0 mi NE 12.7 mph - N/A   Clear
11:15 AM 23.0 °F 13.9 °F -0.4 °F 36% 30.53 in 10.0 mi NE 8.1 mph - N/A   Clear
11:35 AM 24.8 °F 15.3 °F -0.4 °F 34% 30.53 in 10.0 mi North 9.2 mph - N/A   Clear
11:55 AM 24.8 °F 16.1 °F -2.2 °F 31% 30.53 in 10.0 mi NNE 8.1 mph - N/A   Clear
12:15 PM 24.8 °F 15.3 °F -2.2 °F 31% 30.52 in 10.0 mi NNE 9.2 mph - N/A   Clear
12:35 PM 26.6 °F 19.1 °F -0.4 °F 31% 30.51 in 10.0 mi NE 6.9 mph 16.1 mph N/A   Clear
12:55 PM 26.6 °F 15.2 °F -2.2 °F 29% 30.50 in 10.0 mi ENE 13.8 mph - N/A   Clear
1:15 PM 26.6 °F 17.5 °F -0.4 °F 31% 30.49 in 10.0 mi NNE 9.2 mph - N/A   Clear
1:35 PM 26.6 °F 16.8 °F -0.4 °F 31% 30.49 in 10.0 mi ENE 10.4 mph 18.4 mph N/A   Clear
1:55 PM 26.6 °F 18.2 °F -0.4 °F 31% 30.49 in 10.0 mi NE 8.1 mph - N/A   Clear
2:15 PM 26.6 °F 15.7 °F -0.4 °F 31% 30.48 in 10.0 mi NE 12.7 mph 18.4 mph N/A   Clear
2:35 PM 26.6 °F 16.2 °F -0.4 °F 31% 30.48 in 10.0 mi NE 11.5 mph 17.3 mph N/A   Clear
2:55 PM 26.6 °F 18.2 °F -0.4 °F 31% 30.47 in 10.0 mi NE 8.1 mph - N/A   Clear
3:15 PM 26.6 °F 18.2 °F 1.4 °F 34% 30.47 in 10.0 mi ENE 8.1 mph - N/A   Clear
3:35 PM 26.6 °F 16.8 °F -0.4 °F 31% 30.47 in 10.0 mi ENE 10.4 mph - N/A   Clear
3:55 PM 26.6 °F 17.5 °F -0.4 °F 31% 30.47 in 10.0 mi ENE 9.2 mph - N/A   Clear
4:15 PM 26.6 °F 17.5 °F -0.4 °F 31% 30.48 in 10.0 mi NE 9.2 mph - N/A   Clear
4:35 PM 26.6 °F 17.5 °F -0.4 °F 31% 30.48 in 10.0 mi ENE 9.2 mph - N/A   Clear
4:55 PM 24.8 °F 16.1 °F -0.4 °F 34% 30.46 in 10.0 mi ENE 8.1 mph - N/A   Clear
5:15 PM 24.8 °F 16.1 °F -0.4 °F 34% 30.47 in 10.0 mi ENE 8.1 mph - N/A   Clear
5:35 PM 24.8 °F 16.9 °F 1.4 °F 36% 30.47 in 10.0 mi East 6.9 mph - N/A   Clear
5:55 PM 23.0 °F 15.8 °F 1.4 °F 39% 30.47 in 10.0 mi East 5.8 mph - N/A   Clear
6:15 PM 23.0 °F 15.8 °F 1.4 °F 39% 30.47 in 10.0 mi East 5.8 mph - N/A   Clear
6:35 PM 21.2 °F 14.9 °F 1.4 °F 42% 30.48 in 10.0 mi East 4.6 mph - N/A   Clear
6:55 PM 21.2 °F 13.6 °F 3.2 °F 46% 30.47 in 10.0 mi East 5.8 mph - N/A   Clear
7:15 PM 21.2 °F 12.6 °F 3.2 °F 46% 30.46 in 10.0 mi ENE 6.9 mph - N/A   Clear
7:35 PM 21.2 °F 13.6 °F 3.2 °F 46% 30.46 in 10.0 mi ENE 5.8 mph - N/A   Clear
7:55 PM 21.2 °F 11.7 °F 3.2 °F 46% 30.46 in 10.0 mi East 8.1 mph - N/A   Clear
8:15 PM 21.2 °F 12.6 °F 3.2 °F 46% 30.45 in 10.0 mi East 6.9 mph - N/A   Clear
8:35 PM 21.2 °F 13.6 °F 3.2 °F 46% 30.45 in 10.0 mi East 5.8 mph - N/A   Clear
8:55 PM 21.2 °F 14.9 °F 3.2 °F 46% 30.45 in 10.0 mi East 4.6 mph - N/A   Clear
9:15 PM 21.2 °F 12.6 °F 5.0 °F 50% 30.44 in 10.0 mi ENE 6.9 mph - N/A   Clear
9:35 PM 21.2 °F 12.6 °F 3.2 °F 46% 30.43 in 10.0 mi East 6.9 mph - N/A   Clear
9:55 PM 21.2 °F 12.6 °F 5.0 °F 50% 30.42 in 10.0 mi East 6.9 mph - N/A   Clear
10:15 PM 21.2 °F 12.6 °F 5.0 °F 50% 30.41 in 10.0 mi East 6.9 mph - N/A   Clear
10:35 PM 21.2 °F 12.6 °F 5.0 °F 50% 30.40 in 10.0 mi East 6.9 mph - N/A   Clear
10:55 PM 21.2 °F 11.7 °F 5.0 °F 50% 30.39 in 10.0 mi East 8.1 mph - N/A   Clear
11:15 PM 19.4 °F 10.4 °F 6.8 °F 58% 30.38 in 10.0 mi East 6.9 mph - N/A   Clear
11:35 PM 19.4 °F 9.5 °F 6.8 °F 58% 30.38 in 10.0 mi East 8.1 mph - N/A   Clear
11:55 PM 21.2 °F 13.6 °F 6.8 °F 54% 30.38 in 10.0 mi East 5.8 mph - N/A   Clear